Location: Terra Rouge Observatory
(46.0000°N, 62.7500°W)
Time: 10:56:42
(UTC-03:00)

Amateur Radio Satellites - All Passes

Search period start: 23 April 2014 10:26
Search period end: 24 April 2014 10:26
Location: Terra Rouge Observatory, 46.0000°N, 62.7500°W

Satellite Date Start Highest point End Downlink Frequencies (MHz)
Time Altitude Azimuth
HO-68 23 Apr 10:27:30 10:34:41 68° 104° (ESE) 10:41:50 435.675 MHz FM
Saudisat 1A 23 Apr 11:08:08 11:12:36 82° 307° (NW) 11:17:06 436.775 MHz
PCSat 23 Apr 11:10:16 11:11:59 11° 258° (WSW) 11:13:41 145.825 MHz
RS-15 23 Apr 11:30:10 11:39:18 29° 359° (N) 11:48:25 29.354 - 29.394 USB, Beacon 29.352 USB
Oscar 11 23 Apr 11:50:59 11:55:00 37° 291° (WNW) 11:59:01 145.825 FM, Beacon 2401.500 USB
FUNcube-1 23 Apr 11:52:58 11:57:16 82° 103° (ESE) 12:01:39 145.950 - 145.970 MHz USB
KITSAT 1 23 Apr 12:05:17 12:13:17 65° 243° (WSW) 12:21:12 435.175 FM
HO-68 23 Apr 12:15:57 12:21:52 29° 304° (WNW) 12:27:47 435.675 MHz FM
Saudisat 1A 23 Apr 12:49:56 12:52:54 17° 327° (NNW) 12:55:53 436.775 MHz
AO-27 23 Apr 13:03:57 13:07:40 20° 60° (ENE) 13:11:22 436.795 MHz FM
Oscar 19 23 Apr 13:07:32 13:12:11 36° 66° (ENE) 13:16:52 437.125 CW, 437.150 USB
ITAMSAT 1 23 Apr 13:13:08 13:17:09 23° 61° (ENE) 13:21:11 435.822 SSB
Oscar 16 23 Apr 13:16:18 13:21:10 45° 68° (ENE) 13:26:05 437.025 USB, Beacon 2401.1428
Gurwin Techsat 1B 23 Apr 13:23:32 13:24:23 10° 52° (NE) 13:25:14 435.225 FM
FUNcube-1 23 Apr 13:31:26 13:33:07 12° 300° (WNW) 13:34:48 145.950 - 145.970 MHz USB
Oscar 10/S400 23 Apr 13:32:31 14:53:55 25° 261° (W) 17:46:19 145.825 - 145.975 CW/USB, Beacon 145.810 USB
ISS 23 Apr 13:38:50 13:40:45 15° 134° (SE) 13:42:41 145.800 FM
RS-15 23 Apr 13:45:08 13:55:24 43° 32° (NNE) 14:05:46 29.354 - 29.394 USB, Beacon 29.352 USB
AO-7 23 Apr 13:57:39 14:01:25 14° 38° (NE) 14:05:11 29.400 - 29.500 MHz
Uribyol 2 23 Apr 13:59:08 14:04:11 58° 71° (ENE) 14:09:16 436.500 FM
JAS-1B 23 Apr 13:59:16 14:02:22 14° 52° (NE) 14:05:17 435.800 - 435.900 CW/SSB
KITSAT 1 23 Apr 14:03:50 14:07:05 13° 263° (W) 14:10:19 435.175 FM
TMSAT-1 23 Apr 14:06:01 14:09:25 18° 58° (ENE) 14:12:49 436.925 FM
AO-Echo 23 Apr 14:14:33 14:19:39 61° 72° (ENE) 14:24:38 ?
Uosat F 23 Apr 14:40:07 14:42:25 13° 56° (NE) 14:44:43 435.120 FM
SO-50 23 Apr 14:40:40 14:44:40 33° 117° (ESE) 14:48:43 436.795 FM
AO-27 23 Apr 14:41:34 14:46:43 64° 258° (WSW) 14:51:53 436.795 MHz FM
Oscar 19 23 Apr 14:46:55 14:51:32 33° 264° (W) 14:56:12 437.125 CW, 437.150 USB
ITAMSAT 1 23 Apr 14:51:15 14:56:19 53° 260° (W) 15:01:24 435.822 SSB
Oscar 16 23 Apr 14:56:29 15:00:43 26° 266° (W) 15:05:01 437.025 USB, Beacon 2401.1428
Gurwin Techsat 1B 23 Apr 14:58:05 15:03:18 61° 71° (ENE) 15:08:33 435.225 FM
ISS 23 Apr 15:13:42 15:17:03 87° 151° (SSE) 15:20:24 145.800 FM
Uribyol 2 23 Apr 15:40:21 15:44:03 20° 269° (W) 15:47:48 436.500 FM
OPAL 23 Apr 15:41:11 15:46:08 41° 100° (E) 15:51:02 ?
TMSAT-1 23 Apr 15:43:26 15:48:43 77° 257° (WSW) 15:54:03 436.925 FM
AO-7 23 Apr 15:44:26 15:52:16 49° 61° (ENE) 16:00:07 29.400 - 29.500 MHz
JAS-1B 23 Apr 15:44:34 15:52:06 66° 71° (ENE) 15:58:27 435.800 - 435.900 CW/SSB
AO-Echo 23 Apr 15:55:11 15:58:48 19° 269° (W) 16:02:21 ?
RS-15 23 Apr 15:57:50 16:08:44 77° 239° (WSW) 16:19:55 29.354 - 29.394 USB, Beacon 29.352 USB
Uosat F 23 Apr 16:15:25 16:20:26 84° 74° (ENE) 16:25:29 435.120 FM
SO-50 23 Apr 16:21:02 16:25:12 36° 316° (NW) 16:29:25 436.795 FM
UOSAT-12 23 Apr 16:39:09 16:43:06 30° 115° (ESE) 16:47:08 437.025 FM, 437.400 FM
Gurwin Techsat 1B 23 Apr 16:39:55 16:43:42 20° 269° (W) 16:47:31 435.225 FM
ISS 23 Apr 16:50:58 16:54:02 33° 351° (N) 16:57:08 145.800 FM
OPAL 23 Apr 17:20:21 17:24:52 31° 298° (WNW) 17:29:23 ?
TMSAT-1 23 Apr 17:28:46 17:29:32 10° 275° (W) 17:30:18 436.925 FM
JAS-1B 23 Apr 17:37:05 17:43:05 25° 266° (W) 17:48:24 435.800 - 435.900 CW/SSB
AO-7 23 Apr 17:37:23 17:45:08 44° 261° (W) 17:52:59 29.400 - 29.500 MHz
Hamsat 23 Apr 17:46:33 17:50:12 29° 67° (ENE) 17:53:53 145.90 MHz
JAS-2 23 Apr 17:48:54 17:52:06 16° 58° (ENE) 17:55:13 435.800 - 435.900 CW/SSB, 435.910 FM
Saudisat 1A 23 Apr 17:53:41 17:57:29 27° 40° (NE) 18:01:13 436.775 MHz
Uosat F 23 Apr 17:57:37 17:59:53 13° 272° (W) 18:02:09 435.120 FM
SO-50 23 Apr 18:05:57 18:07:06 11° 339° (NNW) 18:08:15 436.795 FM
RS-15 23 Apr 18:12:12 18:19:11 20° 261° (W) 18:26:19 29.354 - 29.394 USB, Beacon 29.352 USB
UOSAT-12 23 Apr 18:18:46 18:23:08 41° 315° (NW) 18:27:35 437.025 FM, 437.400 FM
ISS 23 Apr 18:28:12 18:31:19 34° 11° (N) 18:34:25 145.800 FM
STRAND 1 23 Apr 18:29:09 18:30:25 11° 86° (E) 18:31:41 ?
HO-68 23 Apr 19:14:59 19:18:54 16° 47° (NE) 19:22:49 435.675 MHz FM
SO-67 23 Apr 19:21:19 19:24:44 54° 74° (ENE) 19:28:10 435.3500 MHz FM
Hamsat 23 Apr 19:22:29 19:26:09 28° 265° (W) 19:29:52 145.90 MHz
JAS-2 23 Apr 19:31:04 19:36:41 79° 256° (WSW) 19:41:56 435.800 - 435.900 CW/SSB, 435.910 FM
Saudisat 1A 23 Apr 19:33:02 19:37:18 48° 240° (WSW) 19:41:31 436.775 MHz
UOSAT-12 23 Apr 20:02:39 20:04:33 12° 337° (NNW) 20:06:27 437.025 FM, 437.400 FM
ISS 23 Apr 20:04:55 20:08:16 77° 210° (SSW) 20:11:37 145.800 FM
STRAND 1 23 Apr 20:05:16 20:10:24 83° 104° (ESE) 20:15:30 ?
SO-67 23 Apr 20:57:35 20:58:14 10° 271° (W) 20:58:53 435.3500 MHz FM
HO-68 23 Apr 20:58:16 21:05:18 65° 68° (ENE) 21:12:23 435.675 MHz FM
Oscar 11 23 Apr 21:12:51 21:16:25 26° 66° (ENE) 21:20:00 145.825 FM, Beacon 2401.500 USB
FUNcube-1 23 Apr 21:20:01 21:20:30 10° 58° (ENE) 21:20:59 145.950 - 145.970 MHz USB
SO-50 23 Apr 21:29:54 21:32:37 15° 29° (NNE) 21:35:21 436.795 FM
ISS 23 Apr 21:42:56 21:44:30 13° 227° (SW) 21:46:03 145.800 FM
STRAND 1 23 Apr 21:46:00 21:48:56 16° 303° (WNW) 21:51:52 ?
MaSat-1 23 Apr 21:55:04 21:57:26 28° 303° (WNW) 21:59:40 437.345 MHz
HO-68 23 Apr 22:47:38 22:53:30 27° 267° (W) 22:59:26 435.675 MHz FM
Oscar 11 23 Apr 22:48:34 22:52:29 33° 264° (W) 22:56:26 145.825 FM, Beacon 2401.500 USB
FUNcube-1 23 Apr 22:52:04 22:56:15 89° 77° (ENE) 23:00:26 145.950 - 145.970 MHz USB
SO-50 23 Apr 23:09:29 23:14:06 63° 50° (NE) 23:18:46 436.795 FM
Sapphire 23 Apr 23:24:48 23:29:10 26° 109° (ESE) 23:33:34 437.095 MHz 1200 baud AX-25 AFSK
UOSAT-12 23 Apr 23:26:40 23:29:16 14° 27° (NNE) 23:31:53 437.025 FM, 437.400 FM
PCSat 24 Apr 00:08:02 00:13:20 60° 117° (ESE) 00:18:41 145.825 MHz
KITSAT 1 24 Apr 00:45:54 00:49:32 14° 98° (E) 00:53:09 435.175 FM
SO-50 24 Apr 00:50:59 00:54:15 19° 248° (WSW) 00:57:32 436.795 FM
UOSAT-12 24 Apr 01:05:49 01:10:29 54° 49° (NE) 01:15:05 437.025 FM, 437.400 FM
Sapphire 24 Apr 01:06:58 01:12:16 55° 308° (NW) 01:17:36 437.095 MHz 1200 baud AX-25 AFSK
OPAL 24 Apr 01:22:29 01:25:27 16° 54° (NE) 01:28:27 ?
Oscar 16 24 Apr 01:27:16 01:29:35 13° 87° (E) 01:31:53 437.025 USB, Beacon 2401.1428
PCSat 24 Apr 01:52:32 01:57:09 28° 318° (NW) 02:01:47 145.825 MHz
Uribyol 2 24 Apr 02:10:29 02:13:49 17° 90° (E) 02:17:08 436.500 FM
AO-Echo 24 Apr 02:20:56 02:23:35 15° 89° (E) 02:26:11 ?
KITSAT 1 24 Apr 02:35:23 02:43:23 67° 118° (ESE) 02:51:25 435.175 FM
UOSAT-12 24 Apr 02:46:39 02:50:18 23° 247° (WSW) 02:53:56 437.025 FM, 437.400 FM
AO-27 24 Apr 02:52:13 02:57:02 38° 97° (E) 03:01:50 436.795 MHz FM
Sapphire 24 Apr 02:53:57 02:56:57 15° 330° (NNW) 02:59:57 437.095 MHz 1200 baud AX-25 AFSK
Oscar 19 24 Apr 02:55:14 03:00:27 74° 103° (ESE) 03:05:39 437.125 CW, 437.150 USB
OPAL 24 Apr 02:58:34 03:03:38 86° 253° (WSW) 03:08:49 ?
ITAMSAT 1 24 Apr 03:01:32 03:06:30 45° 99° (E) 03:11:27 435.822 SSB
Oscar 16 24 Apr 03:04:24 03:09:39 88° 285° (WNW) 03:14:51 437.025 USB, Beacon 2401.1428
Gurwin Techsat 1B 24 Apr 03:12:38 03:16:31 20° 91° (E) 03:20:22 435.225 FM
JAS-1B 24 Apr 03:29:56 03:30:40 10° 86° (E) 03:31:25 435.800 - 435.900 CW/SSB
AO-7 24 Apr 03:47:29 03:48:47 10° 82° (E) 03:50:06 29.400 - 29.500 MHz
Uribyol 2 24 Apr 03:48:38 03:53:48 68° 288° (WNW) 03:58:57 436.500 FM
TMSAT-1 24 Apr 03:57:00 04:01:51 35° 96° (E) 04:06:41 436.925 FM
AO-Echo 24 Apr 03:58:09 04:02:53 67° 287° (WNW) 04:07:32 ?
Uosat F 24 Apr 04:21:27 04:25:14 21° 92° (E) 04:28:59 435.120 FM
RS-15 24 Apr 04:22:02 04:24:43 11° 93° (E) 04:27:22 29.354 - 29.394 USB, Beacon 29.352 USB
KITSAT 1 24 Apr 04:31:50 04:39:19 39° 321° (NW) 04:46:51 435.175 FM
AO-27 24 Apr 04:31:56 04:36:28 31° 295° (WNW) 04:40:59 436.795 MHz FM
Oscar 19 24 Apr 04:35:49 04:39:13 18° 301° (WNW) 04:42:38 437.125 CW, 437.150 USB
ITAMSAT 1 24 Apr 04:41:30 04:45:47 27° 297° (WNW) 04:50:04 435.822 SSB
OPAL 24 Apr 04:41:35 04:43:18 12° 271° (W) 04:45:02 ?
Oscar 16 24 Apr 04:45:31 04:48:15 15° 304° (NW) 04:50:58 437.025 USB, Beacon 2401.1428
Gurwin Techsat 1B 24 Apr 04:51:39 04:56:53 60° 289° (WNW) 05:02:05 435.225 FM
JAS-1B 24 Apr 05:16:38 05:22:20 80° 105° (ESE) 05:28:22 435.800 - 435.900 CW/SSB
Uribyol 2 24 Apr 05:30:49 05:32:20 11° 307° (NW) 05:33:52 436.500 FM
AO-7 24 Apr 05:35:12 05:43:24 58° 103° (ESE) 05:51:34 29.400 - 29.500 MHz
TMSAT-1 24 Apr 05:37:00 05:41:45 34° 294° (WNW) 05:46:29 436.925 FM
STRAND 1 24 Apr 05:46:10 05:50:06 23° 61° (ENE) 05:54:02 ?
Uosat F 24 Apr 05:59:28 06:04:20 52° 290° (WNW) 06:09:10 435.120 FM
MaSat-1 24 Apr 06:14:34 06:17:34 89° 64° (ENE) 06:21:08 437.345 MHz
RS-15 24 Apr 06:23:32 06:34:24 56° 115° (ESE) 06:44:57 29.354 - 29.394 USB, Beacon 29.352 USB
Sapphire 24 Apr 06:27:22 06:29:17 12° 24° (NNE) 06:31:12 437.095 MHz 1200 baud AX-25 AFSK
KITSAT 1 24 Apr 06:31:53 06:37:23 19° 349° (NNW) 06:42:53 435.175 FM
Gurwin Techsat 1B 24 Apr 06:35:34 06:35:47 10° 308° (NW) 06:35:59 435.225 FM
Hamsat 24 Apr 07:05:12 07:09:22 42° 98° (E) 07:13:31 145.90 MHz
JAS-1B 24 Apr 07:08:55 07:12:25 17° 304° (NW) 07:15:58 435.800 - 435.900 CW/SSB
PCSat 24 Apr 07:10:51 07:14:43 19° 36° (NE) 07:18:34 145.825 MHz
STRAND 1 24 Apr 07:23:58 07:28:57 53° 260° (W) 07:33:58 ?
AO-7 24 Apr 07:28:26 07:35:54 39° 303° (WNW) 07:43:23 29.400 - 29.500 MHz
Sapphire 24 Apr 08:09:15 08:14:20 39° 48° (NE) 08:19:22 437.095 MHz 1200 baud AX-25 AFSK
SO-67 24 Apr 08:16:27 08:19:52 47° 99° (E) 08:23:15 435.3500 MHz FM
JAS-2 24 Apr 08:20:56 08:26:26 72° 103° (ESE) 08:32:33 435.800 - 435.900 CW/SSB, 435.910 FM
KITSAT 1 24 Apr 08:30:19 08:36:18 22° 19° (NNE) 08:42:15 435.175 FM
RS-15 24 Apr 08:36:03 08:46:55 54° 320° (NW) 08:57:37 29.354 - 29.394 USB, Beacon 29.352 USB
Hamsat 24 Apr 08:41:46 08:45:06 22° 295° (WNW) 08:48:26 145.90 MHz
PCSat 24 Apr 08:53:32 08:59:00 82° 57° (ENE) 09:04:25 145.825 MHz
AO-7 24 Apr 09:24:22 09:26:22 11° 327° (NNW) 09:28:23 29.400 - 29.500 MHz
Saudisat 1A 24 Apr 09:42:26 09:46:00 24° 114° (ESE) 09:49:35 436.775 MHz
SO-67 24 Apr 09:50:57 09:52:38 13° 296° (WNW) 09:54:18 435.3500 MHz FM
Sapphire 24 Apr 09:52:46 09:57:45 38° 247° (WSW) 10:02:43 437.095 MHz 1200 baud AX-25 AFSK
JAS-2 24 Apr 10:07:20 10:11:07 19° 300° (WNW) 10:15:08 435.800 - 435.900 CW/SSB, 435.910 FM
HO-68 24 Apr 10:10:41 10:17:43 53° 101° (E) 10:24:42 435.675 MHz FM
